Volver al catálogo

FENGYUN 1C DEB

ActivoSSO
NORAD 37460·DEBRIS·🇨🇳 China

Lanzado May 10, 1999 desde Taiyuan Satellite Launch Center

Loading…

Próximos Pases (próximas 24 horas)

TLE

ActualizadoSource: Space-Track

Época: Sep 13, 2026, 05:44 UTC

1 37460U 99025EJE 26256.23925883  .00004437  00000-0  11010-2 0  9999
2 37460  98.3906  75.8018 0052520 170.8998 189.3161 14.51517758864676

Sigue FENGYUN 1C DEB en tiempo real con AllMySat

Download on the App Store